Regional Weather Roundup
Issued by NWS

Home | Current Version | Previous Version | Graphics & Text | Print | Product List | Glossary On
Versions: 1 2 3 4 5 6 7 8 9 10 11 12 13 14 15 16 17 18 19 20 21 22 23 24 25 26 27 28 29 30 31 32 33 34 35 36 37 38 39 40 41 42 43 44 45 46 47 48 49 50
000
ASUS43 KLSX 220807
RWRMO

WEATHER SUMMARY FOR MISSOURI
NATIONAL WEATHER SERVICE SPRINGFIELD MO
300 AM CDT FRI AUG 22 2014

NOTE: "FAIR" INDICATES FEW OR NO CLOUDS BELOW 12,000 FEET WITH NO
       SIGNIFICANT WEATHER AND/OR OBSTRUCTIONS TO VISIBILITY.
       CURRENT SKY AND/OR WEATHER CONDITIONS ARE NOT AVAILABLE FOR
       CHILLICOTHE AND FARMINGTON.

MOZ001>031-035>038-043-044-053-054-220900-
...NORTHERN AND WESTERN MISSOURI...

CITY           SKY/WX    TMP DP  RH WIND       PRES   REMARKS
KANSAS CTY INT MOCLDY    81  71  71 SW12      29.92R
KANSAS C DTWN  PTCLDY    83  71  67 S13G23    29.90R
LEE`S SUMMIT   CLEAR     79  71  76 S12       29.93S
ST JOSEPH      MOCLDY    80  73  79 S7        29.90R
CHILLICOTHE      N/A     81  72  74 S9        29.91R
KIRKSVILLE     CLEAR     81  71  71 SW12      29.92S

$$
MOZ066>068-077>081-088>096-101>105-220900-
...SOUTHWEST MISSOURI...

CITY           SKY/WX    TMP DP  RH WIND       PRES   REMARKS
SPRINGFIELD    CLEAR     76  70  82 S10       30.01F
JOPLIN         CLEAR     79  71  76 S13       29.98F

$$
MOZ032>034-039>042-045>050-055>058-069>072-220900-
...CENTRAL MISSOURI...

CITY           SKY/WX    TMP DP  RH WIND       PRES   REMARKS
COLUMBIA       CLEAR     78  70  76 S10       29.96F
JEFFERSON CITY CLEAR     79  69  71 S6        29.95F
ROLLA          CLEAR     74  67  78 SW9       29.99F
SEDALIA        CLEAR     80  70  71 SW13      29.96F
WHITEMAN AFB   CLEAR     76  55  47 SW9       29.94F
OSAGE BEACH    CLEAR     77  68  73 S7        29.98F

$$
MOZ051-052-059>065-220900-
...EAST CENTRAL MISSOURI...

CITY           SKY/WX    TMP DP  RH WIND       PRES   REMARKS
ST LOUIS INTL  CLEAR     84  68  58 SW14      29.95F
SPIRIT OF STL  CLEAR     80  68  66 SW8       29.94F
ST CHARLES     PTCLDY    79  70  74 SW3       29.93S

$$
MOZ072>076-082>087-097>100-106>115-220900-
...SOUTH CENTRAL AND SOUTHEAST MISSOURI...

CITY           SKY/WX    TMP DP  RH WIND       PRES   REMARKS
CAPE GIRARDEAU CLEAR     75  71  87 S3        29.99F
FARMINGTON     CLEAR     75  70  83 SW5       30.03S
POPLAR BLUFF   CLEAR     72  69  90 CALM      30.00F
WEST PLAINS    CLEAR     73  68  84 CALM      30.06S

$$



USA.gov is the U.S. government's official web portal to all federal, state and local government web resources and services.